When you browse on this site, cookies collect data to enhance your experience and personalize the content and advertising you see.
Visit our Privacy Policy to learn more. By continuing to use the site, you agree to this use of cookies and data.
  • In Hungary
  • List of Countries
  • For 7 days
  • Water Temperature
  • Weather Map
  • News
  • Weather Widgets
  • user-avatar
    Login

    Hourly Weather Taikury

    Today, 15 November, Friday

    Time Temperature Precipitation Wind Pressure Humidity
    00:00 +7°C° 0 mm 3 mps 740 mmHg 78%
    01:00 +7°C° 0 mm 3 mps 740 mmHg 80%
    02:00 +5°C° 0 mm 3 mps 740 mmHg 81%
    03:00 +5°C° 0 mm 3 mps 740 mmHg 81%
    04:00 +5°C° 0 mm 4 mps 740 mmHg 82%
    05:00 +5°C° 0 mm 4 mps 740 mmHg 82%
    06:00 +5°C° 0 mm 4 mps 740 mmHg 81%
    07:00 +5°C° 0 mm 4 mps 741 mmHg 80%
    08:00 +6°C° 0 mm 4 mps 741 mmHg 79%
    09:00 +6°C° 0 mm 4 mps 741 mmHg 76%
    10:00 +7°C° 0 mm 4 mps 741 mmHg 73%
    11:00 +7°C° 0 mm 4 mps 741 mmHg 71%
    12:00 +8°C° 0 mm 4 mps 741 mmHg 69%
    13:00 +8°C° 0 mm 4 mps 741 mmHg 67%
    14:00 +8°C° 0 mm 4 mps 741 mmHg 65%
    15:00 +8°C° 0 mm 4 mps 741 mmHg 67%
    16:00 +8°C° 0 mm 3 mps 741 mmHg 69%
    17:00 +8°C° 0 mm 3 mps 741 mmHg 72%
    18:00 +7°C° 0 mm 3 mps 741 mmHg 75%
    19:00 +7°C° 0 mm 3 mps 742 mmHg 78%
    20:00 +7°C° 0 mm 3 mps 742 mmHg 81%
    21:00 +7°C° 0 mm 3 mps 742 mmHg 83%
    22:00 +7°C° 0 mm 3 mps 742 mmHg 85%
    23:00 +5°C° 0 mm 3 mps 742 mmHg 87%

    Tomorrow, 16 November, Saturday

    Time Temperature Precipitation Wind Pressure Humidity
    00:00 +5°C° 0 mm 3 mps 742 mmHg 88%
    01:00 +5°C° 0 mm 3 mps 742 mmHg 89%
    02:00 +5°C° 0 mm 3 mps 742 mmHg 90%
    03:00 +5°C° 0 mm 3 mps 742 mmHg 92%
    04:00 +5°C° 0 mm 3 mps 742 mmHg 93%
    05:00 +5°C° 0 mm 3 mps 742 mmHg 94%
    06:00 +5°C° 0 mm 3 mps 742 mmHg 94%
    07:00 +5°C° 0 mm 3 mps 743 mmHg 95%
    08:00 +5°C° 0 mm 3 mps 743 mmHg 95%
    09:00 +8°C° 0 mm 3 mps 743 mmHg 92%
    10:00 +8°C° 0 mm 4 mps 743 mmHg 89%
    11:00 +10°C° 0 mm 4 mps 743 mmHg 86%
    12:00 +11°C° 0 mm 4 mps 743 mmHg 84%
    13:00 +11°C° 0 mm 4 mps 743 mmHg 83%
    14:00 +12°C° 0 mm 4 mps 743 mmHg 82%
    15:00 +11°C° 0 mm 4 mps 743 mmHg 85%
    16:00 +10°C° 0 mm 4 mps 743 mmHg 89%
    17:00 +10°C° 0 mm 4 mps 743 mmHg 92%
    18:00 +10°C° 0 mm 4 mps 744 mmHg 92%
    19:00 +9°C° 0 mm 3 mps 744 mmHg 93%
    20:00 +9°C° 0 mm 3 mps 744 mmHg 93%
    21:00 +9°C° 0 mm 3 mps 744 mmHg 93%
    22:00 +9°C° 0 mm 3 mps 744 mmHg 92%
    23:00 +9°C° 0 mm 3 mps 744 mmHg 92%

    Day after tomorrow, 17 November, Sunday

    Time Temperature Precipitation Wind Pressure Humidity
    00:00 +9°C° 0 mm 3 mps 744 mmHg 92%
    01:00 +8°C° 0 mm 3 mps 744 mmHg 91%
    02:00 +8°C° 0 mm 3 mps 744 mmHg 91%
    03:00 +8°C° 0 mm 3 mps 744 mmHg 91%
    04:00 +8°C° 0 mm 3 mps 744 mmHg 92%
    05:00 +8°C° 0 mm 3 mps 744 mmHg 92%
    06:00 +8°C° 0 mm 3 mps 744 mmHg 93%
    07:00 +8°C° 0 mm 3 mps 744 mmHg 94%
    08:00 +8°C° 0 mm 3 mps 745 mmHg 95%
    09:00 +9°C° 0 mm 3 mps 745 mmHg 91%
    10:00 +10°C° 0 mm 4 mps 745 mmHg 87%
    11:00 +11°C° 0 mm 4 mps 745 mmHg 83%
    12:00 +12°C° 0 mm 4 mps 745 mmHg 78%
    13:00 +13°C° 0 mm 4 mps 744 mmHg 74%
    14:00 +14°C° 0 mm 5 mps 744 mmHg 69%
    15:00 +13°C° 0 mm 5 mps 744 mmHg 71%
    16:00 +12°C° 0 mm 4 mps 744 mmHg 73%
    17:00 +11°C° 0 mm 4 mps 743 mmHg 74%
    18:00 +9°C° 0 mm 5 mps 743 mmHg 72%
    19:00 +9°C° 0 mm 5 mps 743 mmHg 69%
    20:00 +9°C° 0 mm 5 mps 743 mmHg 67%
    21:00 +8°C° 0 mm 5 mps 743 mmHg 66%
    22:00 +8°C° 0 mm 5 mps 743 mmHg 64%
    23:00 +8°C° 0 mm 5 mps 743 mmHg 63%

    18 November, Monday

    Time Temperature Precipitation Wind Pressure Humidity
    00:00 +7°C° 0 mm 5 mps 743 mmHg 63%
    01:00 +7°C° 0 mm 5 mps 742 mmHg 63%
    02:00 +7°C° 0 mm 5 mps 742 mmHg 63%
    03:00 +7°C° 0 mm 5 mps 742 mmHg 65%
    04:00 +6°C° 0 mm 5 mps 741 mmHg 67%
    05:00 +5°C° 0 mm 6 mps 741 mmHg 68%
    06:00 +5°C° 0 mm 6 mps 741 mmHg 70%
    07:00 +5°C° 0 mm 6 mps 741 mmHg 71%
    08:00 +4°C° 0 mm 6 mps 741 mmHg 72%
    09:00 +7°C° 0 mm 6 mps 741 mmHg 68%
    10:00 +8°C° 0 mm 7 mps 741 mmHg 64%
    11:00 +9°C° 0 mm 7 mps 741 mmHg 60%
    12:00 +10°C° 0 mm 7 mps 740 mmHg 58%
    13:00 +11°C° 0 mm 7 mps 740 mmHg 56%
    14:00 +11°C° 0 mm 6 mps 740 mmHg 54%
    15:00 +10°C° 0 mm 5 mps 740 mmHg 59%
    16:00 +9°C° 0 mm 5 mps 740 mmHg 64%
    17:00 +8°C° 0 mm 4 mps 740 mmHg 69%
    18:00 +8°C° 0 mm 4 mps 741 mmHg 74%
    19:00 +7°C° 0 mm 4 mps 741 mmHg 79%
    20:00 +7°C° 0 mm 4 mps 741 mmHg 85%
    21:00 +7°C° 0 mm 4 mps 741 mmHg 87%
    22:00 +8°C° 0 mm 3 mps 742 mmHg 90%
    23:00 +8°C° 0 mm 3 mps 742 mmHg 93%

    19 November, Tuesday

    Time Temperature Precipitation Wind Pressure Humidity
    00:00 +7°C° 0 mm 3 mps 742 mmHg 92%
    01:00 +7°C° 0 mm 3 mps 742 mmHg 92%
    02:00 +7°C° 0 mm 2 mps 743 mmHg 92%
    03:00 +7°C° 0 mm 2 mps 743 mmHg 91%
    04:00 +7°C° 0 mm 2 mps 743 mmHg 90%
    05:00 +7°C° 0 mm 2 mps 743 mmHg 90%
    06:00 +7°C° 0 mm 2 mps 743 mmHg 89%
    07:00 +7°C° 0 mm 2 mps 743 mmHg 88%
    08:00 +7°C° 0 mm 2 mps 743 mmHg 88%
    09:00 +8°C° 0 mm 2 mps 744 mmHg 84%
    10:00 +9°C° 0 mm 2 mps 744 mmHg 80%
    11:00 +10°C° 0 mm 2 mps 744 mmHg 76%
    12:00 +12°C° 0 mm 2 mps 744 mmHg 73%
    13:00 +13°C° 0 mm 1 mps 744 mmHg 69%
    14:00 +13°C° 0 mm 1 mps 743 mmHg 66%
    15:00 +12°C° 0 mm 1 mps 743 mmHg 72%
    16:00 +10°C° 0 mm 2 mps 743 mmHg 78%
    17:00 +9°C° 0 mm 2 mps 743 mmHg 84%
    18:00 +8°C° 0 mm 2 mps 743 mmHg 86%
    19:00 +8°C° 0 mm 2 mps 743 mmHg 88%
    20:00 +8°C° 0 mm 2 mps 743 mmHg 89%
    21:00 +8°C° 0 mm 2 mps 743 mmHg 90%
    22:00 +8°C° 0 mm 2 mps 743 mmHg 91%
    23:00 +8°C° 0 mm 2 mps 743 mmHg 92%

    20 November, Wednesday

    Time Temperature Precipitation Wind Pressure Humidity
    00:00 +8°C° 0 mm 2 mps 743 mmHg 92%
    01:00 +8°C° 0 mm 2 mps 743 mmHg 92%
    02:00 +9°C° 0 mm 2 mps 743 mmHg 92%
    03:00 +9°C° 0 mm 2 mps 743 mmHg 91%
    04:00 +9°C° 0 mm 2 mps 743 mmHg 91%
    05:00 +9°C° 0 mm 2 mps 742 mmHg 90%
    06:00 +9°C° 0 mm 2 mps 742 mmHg 91%
    07:00 +9°C° 0 mm 2 mps 742 mmHg 92%
    08:00 +10°C° 0 mm 1 mps 742 mmHg 94%
    09:00 +9°C° 0 mm 2 mps 742 mmHg 91%
    10:00 +10°C° 0 mm 2 mps 743 mmHg 89%
    11:00 +12°C° 0 mm 2 mps 743 mmHg 87%
    12:00 +12°C° 0 mm 2 mps 743 mmHg 85%
    13:00 +13°C° 0 mm 2 mps 742 mmHg 83%
    14:00 +13°C° 0 mm 1 mps 742 mmHg 81%
    15:00 +12°C° 0 mm 1 mps 742 mmHg 84%
    16:00 +12°C° 0 mm 1 mps 742 mmHg 87%
    17:00 +11°C° 0 mm 1 mps 742 mmHg 90%
    18:00 +11°C° 0 mm 1 mps 742 mmHg 91%
    19:00 +10°C° 0 mm 1 mps 742 mmHg 92%
    20:00 +10°C° 0 mm 1 mps 742 mmHg 94%
    21:00 +10°C° 0 mm 1 mps 743 mmHg 94%
    22:00 +9°C° 0 mm 1 mps 743 mmHg 94%
    23:00 +8°C° 0 mm 0 mps 743 mmHg 94%
    Show more